Wind_Speed
36 43 43 33 35 39 37 39 37 39 38 38 35 36 33 31 29 28 28 28 28 31 32 30 30 31 30 30 30 31 33 35 36 37 39 40 41 42 43 44 47 49 48 47
40 41 44 34 38 35 40 39 41 41 42 43 36 35 35 36 35 34 33 32 32 31 33 32 32 33 32 32 34 37 38 39 38 40 43 44 44 46 47 50 51 52 54 53
35 33 42 37 39 44 43 39 36 35 35 38 38 39 38 37 38 37 39 38 36 36 39 40 38 35 35 36 36 36 38 38 39 42 43 46 47 48 49 52 52 55 55 55
37 37 37 42 41 39 40 38 34 34 35 34 36 38 41 41 40 41 40 44 42 43 43 40 39 39 39 42 44 41 43 45 47 46 47 49 49 52 53 54 56 56 56 57
39 38 37 39 41 41 37 38 36 37 35 35 36 36 39 39 39 40 41 40 43 44 42 46 46 41 43 48 45 46 48 51 52 52 52 54 55 56 57 57 56 57 57 57
43 42 41 38 39 39 37 37 39 38 36 35 37 38 37 37 36 37 35 33 33 37 39 40 42 43 45 48 48 49 50 51 52 52 52 52 54 54 56 57 57 57 58 59
40 45 45 41 39 35 34 37 36 36 37 36 37 38 35 35 34 33 34 34 36 39 40 42 45 46 47 48 49 49 50 51 52 53 55 56 57 58 59 60 62 63 64 64
40 38 36 37 38 39 36 37 37 36 33 28 31 34 32 33 34 33 34 33 36 39 42 45 47 49 50 50 50 52 54 55 57 59 60 61 63 65 66 67 68 69 70 70
26 27 31 34 36 37 34 32 30 28 24 24 28 31 31 28 28 31 34 35 38 43 47 49 50 50 51 52 54 57 58 59 62 63 64 66 68 70 71 72 72 72 73 72
18 22 23 25 28 31 31 27 23 22 22 24 26 27 28 26 28 31 34 38 43 48 50 50 51 54 56 59 60 62 63 64 65 67 70 72 73 74 76 77 79 79 78 76
14 15 17 20 25 27 26 27 27 28 28 29 29 33 34 38 40 42 44 47 52 54 56 58 60 63 65 67 69 71 73 75 77 79 81 82 82 82 82 82 82 82 82 81
20 20 20 20 23 23 23 24 25 27 30 36 39 40 40 42 47 48 50 51 53 53 53 54 56 58 60 61 64 67 69 72 74 77 78 80 80 80 79 78 77 76 78 78
22 22 24 25 26 25 25 24 26 28 29 30 35 35 37 38 40 39 40 41 41 42 42 43 45 48 50 52 54 57 59 62 64 66 68 70 72 73 73 72 73 74 76 77
25 25 26 28 29 29 28 28 28 29 30 29 27 30 28 28 29 31 32 32 33 36 38 40 41 44 46 50 52 55 58 60 63 65 67 68 69 69 71 72 75 76 78 79
26 26 27 28 29 28 26 26 26 24 23 21 22 23 27 24 27 31 34 36 40 44 47 50 52 54 57 58 59 62 64 64 65 66 66 67 69 70 71 74 76 76 76 77
19 19 21 23 23 21 21 21 19 18 19 19 21 21 25 29 32 35 38 42 43 45 47 50 52 53 54 57 61 63 66 68 71 74 76 79 80 80 78 79 81 83 81 80
18 19 21 21 21 21 20 18 18 19 19 21 20 24 28 32 34 35 40 42 45 48 51 51 52 54 56 59 61 64 67 70 73 75 77 79 79 79 80 80 81 79 80 78
21 22 25 22 24 26 19 23 23 23 25 25 27 31 33 33 34 39 43 45 48 52 51 50 52 54 57 60 64 67 71 73 76 77 77 79 78 79 79 79 79 77 75 71
26 28 28 30 30 28 27 27 28 30 29 29 28 32 35 36 38 39 41 46 49 49 47 49 52 56 59 63 66 69 70 72 75 76 77 78 80 80 81 79 76 74 72 65
32 33 34 36 36 35 29 33 32 33 31 29 32 36 37 36 37 38 42 45 45 44 46 50 54 55 57 61 66 70 73 78 80 81 83 84 84 81 79 77 72 67 63 58
36 39 39 38 40 39 34 32 35 38 30 35 33 34 33 35 39 40 44 44 47 45 46 51 52 56 57 60 67 74 77 83 86 87 85 79 77 79 73 70 60 55 53 53
38 41 41 39 39 37 31 37 38 35 39 35 35 32 32 37 37 42 43 45 44 46 49 52 52 53 57 66 72 78 78 85 90 90 80 70 69 69 72 64 53 50 51 52
41 40 41 42 39 37 39 37 39 39 37 38 38 35 36 37 39 43 45 47 47 51 51 54 57 58 61 67 73 77 80 84 88 84 74 66 64 66 68 59 55 52 52 52
41 40 40 39 36 35 37 43 44 42 42 42 39 39 40 38 42 44 47 48 50 53 54 59 63 65 63 69 74 77 79 83 83 79 69 61 60 62 60 57 55 54 52 50
45 43 43 41 40 37 41 45 48 47 43 40 40 43 41 43 44 46 49 51 54 56 60 64 68 68 69 74 78 81 79 82 83 79 68 61 58 56 55 54 52 51 49 47
49 42 42 38 32 40 43 48 48 46 44 45 46 46 46 48 46 49 51 54 57 59 62 67 69 70 72 77 79 81 82 83 81 74 67 63 60 57 56 55 50 47 47 45
Wind_Direction
205 197 209 209 211 213 217 221 223 220 225 223 230 237 230 229 230 233 237 239 242 249 254 259 266 271 273 271 273 273 267 268 274 277 277 278 280 282 282 281 283 285 284 283
202 203 205 209 211 211 214 223 224 219 221 226 231 235 235 236 234 234 235 240 244 251 254 258 261 269 270 271 269 269 269 271 273 273 275 277 279 282 284 284 284 286 287 288
194 199 194 202 211 214 214 214 222 228 226 230 234 240 239 240 240 244 244 241 244 248 252 259 259 262 266 268 267 271 272 273 277 277 279 280 281 282 283 284 286 286 287 288
204 205 200 201 205 204 210 218 229 228 229 232 234 238 241 246 247 246 250 246 245 247 249 256 258 259 265 272 268 269 274 279 281 280 280 281 283 285 285 286 287 287 288 287
203 201 209 205 208 211 215 220 223 224 226 230 234 238 240 241 240 245 250 253 250 256 259 258 264 264 267 275 274 272 273 276 280 282 283 283 282 281 283 284 284 285 285 286
212 209 208 210 211 215 220 221 224 231 234 233 236 237 239 243 245 247 247 253 255 257 264 267 271 272 272 272 273 273 275 276 277 278 280 281 282 284 284 285 286 286 286 285
217 222 220 215 215 218 223 225 228 232 235 235 238 238 239 240 246 250 254 258 262 265 267 268 270 271 272 272 273 274 274 276 277 278 279 280 281 281 283 283 283 283 282 281
233 222 222 227 226 224 227 227 227 229 230 241 245 244 249 253 255 258 262 265 264 264 265 267 268 269 271 273 275 276 276 277 277 278 279 281 281 282 282 282 281 281 281 282
223 225 230 232 226 226 225 219 224 228 235 246 253 256 259 263 264 263 264 266 268 267 266 266 268 271 275 276 277 278 280 280 281 282 283 283 282 283 283 283 284 284 284 286
231 231 231 230 230 227 224 224 230 232 243 249 254 259 260 268 268 269 270 268 268 268 270 275 278 277 275 276 278 281 283 283 284 284 284 285 286 286 286 286 286 285 285 286
251 249 246 244 245 247 251 255 256 256 254 255 262 264 267 265 266 268 269 270 271 275 279 280 281 283 285 285 285 284 285 287 287 286 287 287 287 287 286 287 287 287 287 287
253 261 265 270 269 261 259 260 263 265 267 267 267 270 275 278 277 278 281 285 286 288 290 291 291 291 291 290 289 289 288 288 287 287 287 287 286 286 285 285 286 288 287 286
256 258 257 256 260 265 269 268 267 268 272 273 275 279 281 284 287 289 291 292 293 296 299 300 301 301 301 300 299 298 297 295 294 292 291 290 290 290 290 290 288 287 287 287
256 256 257 258 258 259 262 264 267 270 274 278 281 286 289 296 297 299 301 304 305 306 306 304 304 304 304 302 300 298 298 297 296 295 293 292 291 290 289 289 289 289 289 288
251 254 257 259 262 265 266 267 268 270 273 281 288 290 298 303 307 309 309 307 305 302 300 300 300 299 299 299 297 296 296 294 293 292 292 294 296 296 296 295 293 291 289 288
247 251 256 259 261 261 261 262 266 271 274 280 286 293 300 302 304 306 305 304 304 305 304 306 307 306 305 301 300 300 299 298 296 294 294 295 296 297 299 298 298 296 290 288
252 254 256 258 260 262 264 266 267 271 279 285 291 292 295 298 300 303 304 306 307 306 307 307 307 306 304 303 303 303 302 301 300 300 300 299 297 296 296 296 294 290 287 284
249 249 252 255 257 261 263 270 270 272 279 285 288 291 295 297 300 302 307 308 310 310 309 308 307 304 304 306 306 305 306 306 305 304 303 302 301 300 299 297 293 288 283 282
251 252 253 255 258 263 260 269 272 277 284 287 291 290 295 298 300 300 304 306 308 308 310 310 308 308 309 309 309 309 309 309 308 308 308 308 305 302 300 298 295 289 284 280
251 252 255 259 260 263 263 264 272 280 288 290 290 291 294 294 292 294 300 304 303 307 306 306 307 310 313 315 316 318 317 317 316 317 316 315 312 306 302 299 295 287 285 284
253 253 254 258 262 266 268 270 274 278 294 281 289 290 290 290 289 294 299 302 303 302 302 306 309 312 317 318 320 324 322 321 322 320 319 313 306 304 303 300 295 289 287 281
255 255 256 258 263 277 274 270 276 276 280 282 282 286 290 288 291 291 295 296 294 296 300 304 307 309 313 316 320 322 320 320 321 322 318 307 303 302 304 302 290 285 281 277
258 262 263 265 269 268 272 273 273 275 279 278 282 285 285 287 287 288 292 294 294 297 300 303 308 309 312 317 320 320 320 321 321 320 314 307 304 302 302 298 290 284 281 281
264 264 262 268 272 269 273 276 277 277 272 275 280 279 282 284 284 287 290 291 292 296 299 303 307 308 312 316 319 319 322 321 319 316 311 309 306 304 299 291 290 288 287 287
262 262 264 271 275 277 277 276 273 275 274 276 274 276 280 282 285 289 292 290 292 296 298 302 305 308 313 315 317 318 320 319 319 315 309 305 308 306 295 289 290 286 284 285
258 269 264 272 273 270 273 278 278 281 281 272 271 276 279 282 286 290 294 291 293 297 300 304 307 309 312 314 315 315 317 319 316 312 308 305 307 306 300 292 288 285 282 281
Height
5732 5737 5744 5751 5756 5761 5768 5771 5775 5782 5785 5788 5792 5795 5795 5798 5801 5801 5803 5805 5807 5807 5808 5810 5811 5813 5813 5813 5813 5812 5811 5810 5810 5809 5808 5806 5804 5803 5800 5798 5797 5795 5794 5791
5732 5736 5742 5747 5753 5758 5764 5767 5771 5776 5780 5783 5787 5786 5789 5793 5794 5796 5798 5800 5802 5803 5803 5804 5805 5807 5806 5806 5805 5804 5804 5803 5801 5800 5799 5798 5796 5795 5792 5791 5789 5786 5785 5782
5728 5734 5739 5744 5749 5754 5759 5762 5767 5771 5773 5775 5776 5779 5783 5786 5789 5791 5793 5794 5795 5796 5797 5798 5799 5800 5800 5799 5798 5797 5796 5795 5794 5793 5791 5790 5788 5787 5785 5783 5781 5777 5775 5772
5726 5729 5734 5738 5743 5748 5752 5758 5762 5765 5768 5770 5770 5773 5776 5779 5782 5785 5787 5788 5789 5790 5791 5791 5792 5792 5792 5793 5792 5790 5789 5788 5787 5785 5783 5782 5780 5779 5777 5774 5772 5769 5766 5764
5722 5724 5728 5733 5738 5743 5747 5752 5756 5759 5762 5763 5764 5767 5770 5773 5776 5778 5780 5781 5782 5783 5784 5785 5787 5787 5786 5787 5785 5783 5781 5780 5778 5776 5774 5773 5771 5768 5766 5764 5762 5759 5756 5754
5718 5723 5727 5731 5734 5738 5742 5746 5749 5752 5754 5756 5757 5761 5763 5766 5769 5770 5773 5775 5776 5777 5778 5779 5779 5778 5777 5776 5775 5773 5772 5771 5769 5767 5765 5763 5760 5758 5756 5753 5751 5748 5746 5742
5718 5721 5724 5728 5731 5734 5738 5741 5744 5748 5750 5752 5752 5755 5758 5760 5762 5765 5767 5768 5770 5772 5772 5771 5770 5769 5767 5766 5765 5763 5762 5760 5759 5757 5754 5752 5749 5746 5744 5741 5738 5736 5733 5729
5713 5718 5720 5723 5726 5729 5732 5736 5739 5741 5744 5745 5745 5748 5753 5755 5756 5759 5762 5763 5764 5764 5762 5761 5760 5760 5758 5756 5754 5753 5751 5749 5747 5744 5741 5739 5737 5735 5732 5727 5724 5720 5716 5712
5710 5713 5715 5719 5721 5725 5727 5730 5733 5735 5737 5738 5741 5744 5745 5750 5753 5754 5754 5755 5756 5756 5755 5754 5752 5750 5749 5748 5746 5744 5740 5737 5735 5732 5730 5727 5723 5719 5716 5712 5708 5703 5699 5695
5709 5713 5714 5716 5719 5721 5722 5724 5728 5730 5733 5735 5737 5739 5741 5744 5746 5747 5747 5747 5747 5745 5744 5744 5743 5741 5738 5735 5732 5730 5728 5726 5723 5719 5716 5712 5708 5703 5699 5694 5690 5685 5681 5678
5705 5708 5711 5714 5716 5719 5721 5722 5725 5726 5728 5728 5730 5732 5734 5735 5737 5738 5738 5738 5738 5738 5737 5734 5731 5728 5725 5722 5719 5716 5713 5709 5705 5702 5698 5694 5688 5683 5680 5676 5671 5666 5663 5659
5703 5704 5707 5708 5710 5713 5715 5716 5719 5720 5724 5724 5724 5727 5728 5728 5730 5732 5732 5732 5730 5728 5726 5723 5720 5717 5714 5710 5706 5703 5700 5695 5691 5687 5682 5675 5671 5666 5662 5657 5652 5648 5645 5640
5698 5700 5702 5704 5707 5708 5709 5711 5714 5716 5717 5719 5719 5721 5720 5722 5723 5724 5722 5720 5719 5717 5715 5711 5708 5704 5700 5696 5692 5688 5683 5680 5676 5671 5666 5661 5656 5651 5645 5641 5635 5628 5623 5620
5692 5694 5696 5697 5700 5702 5704 5705 5708 5710 5712 5713 5713 5712 5714 5715 5715 5716 5716 5715 5713 5710 5708 5705 5702 5698 5694 5689 5683 5678 5674 5669 5664 5658 5653 5646 5640 5634 5629 5623 5617 5612 5607 5602
5687 5688 5688 5690 5693 5695 5697 5699 5701 5704 5706 5707 5708 5706 5709 5709 5711 5710 5709 5706 5704 5701 5699 5695 5691 5687 5682 5676 5670 5666 5662 5657 5650 5644 5638 5631 5624 5619 5613 5606 5600 5594 5588 5582
5679 5680 5682 5684 5688 5691 5693 5694 5696 5699 5701 5703 5703 5702 5704 5703 5702 5703 5700 5698 5694 5690 5686 5682 5678 5673 5668 5662 5657 5652 5646 5640 5633 5627 5620 5614 5607 5601 5594 5586 5580 5574 5567 5561
5674 5675 5678 5681 5684 5687 5689 5690 5692 5695 5697 5698 5698 5697 5697 5696 5694 5691 5689 5687 5682 5679 5674 5670 5666 5662 5657 5651 5644 5639 5632 5624 5617 5610 5603 5596 5588 5583 5575 5567 5559 5551 5545 5540
5671 5672 5674 5678 5680 5681 5685 5685 5687 5690 5690 5691 5690 5689 5688 5686 5684 5681 5678 5674 5670 5666 5662 5659 5654 5649 5643 5636 5631 5625 5616 5608 5600 5592 5584 5575 5568 5561 5553 5545 5536 5529 5523 5519
5666 5667 5670 5671 5674 5677 5678 5680 5681 5682 5684 5683 5682 5679 5677 5675 5672 5670 5668 5663 5659 5654 5650 5646 5642 5637 5631 5624 5617 5609 5600 5591 5581 5573 5565 5555 5544 5536 5527 5520 5513 5507 5501 5499
5658 5661 5662 5663 5666 5669 5673 5672 5673 5673 5675 5674 5674 5670 5668 5666 5662 5660 5658 5655 5650 5644 5639 5634 5630 5624 5616 5608 5600 5594 5584 5575 5565 5554 5544 5533 5522 5513 5505 5498 5492 5486 5482 5481
5650 5651 5652 5654 5655 5659 5662 5663 5663 5663 5671 5663 5664 5660 5657 5655 5652 5650 5647 5644 5638 5634 5628 5623 5618 5612 5603 5593 5585 5579 5569 5557 5548 5537 5526 5513 5501 5491 5485 5478 5472 5468 5464 5462
5640 5640 5642 5644 5645 5648 5654 5652 5653 5656 5654 5655 5652 5649 5647 5644 5642 5639 5637 5634 5629 5625 5617 5611 5607 5601 5592 5579 5571 5564 5554 5540 5528 5517 5506 5495 5485 5475 5467 5460 5456 5451 5447 5444
5626 5631 5634 5635 5638 5638 5638 5641 5641 5642 5643 5642 5640 5639 5635 5633 5631 5628 5626 5622 5618 5612 5607 5601 5595 5589 5579 5565 5554 5545 5536 5522 5509 5499 5489 5479 5470 5461 5452 5444 5440 5435 5431 5429
5615 5619 5621 5623 5628 5628 5629 5628 5628 5630 5629 5628 5629 5626 5623 5622 5619 5617 5614 5611 5607 5600 5594 5587 5580 5573 5566 5551 5541 5527 5516 5502 5490 5481 5473 5464 5454 5446 5437 5429 5423 5420 5416 5414
5605 5608 5611 5614 5616 5619 5617 5616 5615 5614 5616 5617 5616 5613 5611 5608 5606 5605 5603 5599 5593 5586 5581 5573 5564 5556 5548 5536 5525 5513 5498 5484 5473 5464 5455 5448 5439 5430 5424 5416 5410 5406 5404 5400
5596 5599 5601 5604 5607 5603 5604 5602 5603 5604 5605 5603 5602 5600 5597 5594 5593 5590 5590 5584 5578 5572 5565 5557 5548 5539 5531 5520 5508 5494 5480 5468 5456 5446 5438 5429 5421 5413 5406 5400 5398 5393 5390 5386